Tracking 29892 objects as of 21-Nov-2024
HD Live streaming from Space Station
objects crossing your sky now

YAOGAN-39 03B

Track YAOGAN-39 03B now!
10-day predictions


NORAD ID: 57988
Int'l Code: 2023-152C
Perigee: 497.1 km
Apogee: 511.3 km
Inclination: 35.0 °
Period: 94.6 minutes
Semi major axis: 6875 km
RCS: Unknown
Launch date: October 5, 2023
Source: People's Republic of China (PRC)
Launch site: Xichang Space Center, China (XSC)
Your satellite tracking list
Your tracking list is empty




NASA's NSSDC Master Catalog

Two Line Element Set (TLE):
1 57988U 23152C   24326.14545235  .00019928  00000-0  82769-3 0  9990
2 57988  34.9936 276.2735 0010306 228.1099 131.8736 15.22904567 63027
Source of the keplerian elements: AFSPC